www.pogodaiklimat.ru

Погода и климат >> Архив погоды >> Австралия >> Западная Австралия >> Ньюдегейт


ПОГОДА в Ньюдегейте

  • Прогноз погоды в Ньюдегейте
  • Монитор погоды в Ньюдегейте

АРХИВ ПОГОДЫ в Ньюдегейте

Время (UTC), дата Ветер
(напр.,м/с)
 
Видим.   Явления Облачность Т
(С)
Тd
(С)
f
(%)
Тe
(С)
Тes
(С)
Комфортность P
(гПа)
Po
(гПа)
Тmin
(С)
Tmax
(С)
R
(мм)
R24
(мм)
S
(см)
04 14.09 З 2 н/о н/о +21.3 +13.2 60 +24 +24 комфорт 1022.5 984.2
06 14.09 З 3 н/о н/о +21.9 +13.5 59 +25 +25 комфорт 1021.0 982.8
07 14.09 ЮЗ 3 н/о н/о +22.5 +13.3 56 +25 +25 комфорт 1020.3 982.1
09 14.09 ЮЗ 2 н/о н/о +22.4 +12.9 55 +25 +25 комфорт 1020.8 982.6
10 14.09 ЮЗ 2 н/о н/о +19.6 +12.6 64 +22 +22 комфорт 1021.0 982.8
12 14.09 Ю 3 н/о н/о +18.0 +13.7 76 +18 +18 1022.3 984.0
13 14.09 ЮВ 2 н/о н/о +15.9 +13.2 84 +16 +16 1022.8 984.5 +23.2
15 14.09 ЮВ 5 н/о н/о +14.4 +12.6 89 +13 +13 1023.1 984.8
16 14.09 Ю 4 н/о н/о +13.9 +11.6 86 +12 +12 1023.0 984.7
18 14.09 ЮВ 5 н/о н/о +12.8 +10.3 85 +11 +11 1022.2 983.9
19 14.09 ЮВ 3 н/о н/о +12.7 +9.9 83 +11 +11 1022.9 984.6
21 14.09 Ю 3 н/о н/о +12.7 +9.9 83 +11 +11 1023.7 985.4
22 14.09 ЮВ 3 н/о н/о +12.2 +9.8 85 +11 +11 1023.9 985.6
00 15.09 ЮВ 4 н/о н/о +13.1 +10.3 83 +12 +12 1025.0 986.6
01 15.09 ЮВ 4 н/о н/о +15.1 +11.1 77 +14 +14 1024.9 986.5 +12.0
03 15.09 ЮВ 5 н/о н/о +16.9 +10.5 66 +16 +16 1024.2 985.8
04 15.09 ЮВ 4 н/о н/о +17.0 +10.6 66 +17 +17 1024.0 985.7
06 15.09 Ю 6 н/о н/о +18.8 +10.1 57 +19 +19 1023.4 985.1
07 15.09 ЮВ 5 н/о н/о +19.5 +10.5 56 +20 +20 1023.2 984.9
09 15.09 В 6 н/о н/о +16.0 +10.3 69 +15 +15 1023.8 985.5
10 15.09 В 5 н/о н/о +13.6 +9.8 78 +12 +12 1024.4 986.0
12 15.09 ЮВ 6 н/о н/о +12.2 +9.4 83 +10 +10 1025.4 987.0
13 15.09 ЮВ 7 н/о н/о +11.3 +9.2 87 +8 +8 1025.8 987.4 +20.4
15 15.09 В 5 н/о н/о +10.8 +7.7 81 +8 +8 1025.7 987.3
16 15.09 ЮВ 4 н/о н/о +9.8 +7.1 83 +7 +7 1025.9 987.5
18 15.09 В 2 н/о н/о +7.8 +6.1 89 +6 +6 1025.4 987.0
19 15.09 В 3 н/о н/о +7.8 +6.3 90 +5 +5 1025.2 986.8
21 15.09 В 4 н/о н/о +7.3 +5.9 91 +4 +4 1025.2 986.8
22 15.09 В 4 н/о н/о +7.3 +5.9 91 +4 +4 1025.7 987.3
00 16.09 В 5 н/о н/о +11.7 +7.6 76 +9 +9 1025.4 987.0
01 16.09 СВ 7 н/о н/о +14.6 +7.2 61 +13 +13 1025.1 986.7 +7.0
03 16.09 СВ 6 н/о н/о +18.6 +8.0 50 +19 +19 1023.5 985.2
04 16.09 СВ 5 н/о н/о +20.2 +8.5 47 +21 +21 комфорт 1022.4 984.1
06 16.09 В 4 н/о н/о +21.7 +8.6 43 +23 +23 комфорт 1020.4 982.2
07 16.09 В 4 н/о н/о +22.2 +9.4 44 +24 +24 комфорт 1019.8 981.6
09 16.09 В 3 н/о н/о +20.7 +9.0 47 +22 +22 комфорт 1019.1 980.9
10 16.09 ЮВ 2 н/о н/о +16.9 +8.6 58 +17 +17 1019.1 980.9
12 16.09 ЮВ 5 н/о н/о +14.6 +8.5 67 +13 +13 1020.0 981.8
13 16.09 ЮВ 3 н/о н/о +12.9 +8.4 74 +12 +12 1020.5 982.3 +22.6
15 16.09 В 2 н/о н/о +11.8 +8.3 79 +11 +11 1019.4 981.2
16 16.09 В 2 н/о н/о +10.9 +8.0 82 +10 +10 1018.4 980.3
18 16.09 ЮВ 2 н/о н/о +10.8 +8.0 83 +10 +10 1017.3 979.2
19 16.09 штиль 0 н/о н/о +10.2 +7.6 84 +10 +10 1016.7 978.6
21 16.09 В 1 н/о н/о +10.9 +8.1 83 +11 +11 1016.9 978.8
22 16.09 штиль 0 н/о н/о +9.8 +7.2 84 +9 +9 1016.9 978.8
00 17.09 С 4 н/о н/о +17.6 +8.5 55 +17 +17 1016.9 978.8
01 17.09 С 5 н/о н/о +21.0 +8.3 44 +22 +22 комфорт 1016.6 978.5 +9.0
03 17.09 С 5 н/о н/о +26.2 +8.2 32 +26 +26 жарко 1015.4 977.4
04 17.09 СЗ 6 н/о н/о +27.6 +8.5 30 +27 +27 жарко 1014.5 976.5
06 17.09 СЗ 7 н/о н/о +27.9 +7.2 27 +27 +27 жарко 1012.9 975.0
07 17.09 СЗ 7 н/о н/о +27.2 +7.1 28 +27 +27 жарко 1012.6 974.7
09 17.09 СЗ 6 н/о н/о +25.9 +5.5 27 +25 +25 комфорт 1013.6 975.6
10 17.09 З 3 н/о н/о +22.9 +4.9 31 +23 +23 комфорт 1014.0 976.0
12 17.09 ЮЗ 3 н/о н/о +17.6 +8.7 56 +18 +18 1016.2 978.1
13 17.09 Ю 3 н/о н/о +14.4 +10.0 75 +13 +13 1016.7 978.6 +29.5
15 17.09 штиль 0 н/о н/о +10.6 +8.4 86 +10 +10 1016.8 978.7
16 17.09 штиль 0 н/о н/о +13.0 +10.2 83 +13 +13 1016.4 978.3
18 17.09 С 2 н/о н/о +13.9 +11.2 84 +14 +14 1015.5 977.5
19 17.09 З 1 н/о н/о +13.5 +10.9 84 +14 +14 1014.9 976.9
21 17.09 З 3 н/о н/о +12.1 +9.3 83 +11 +11 1014.8 976.8
22 17.09 З 2 н/о н/о +10.7 +8.6 87 +10 +10 1015.0 977.0
00 18.09 З 3 н/о н/о +14.2 +10.0 76 +13 +13 1015.0 977.0
01 18.09 СЗ 6 н/о н/о +15.9 +9.3 65 +15 +15 1014.5 976.5 +9.6
03 18.09 З 7 н/о н/о +18.0 +8.3 53 +17 +17 1012.8 974.9
04 18.09 СЗ 7 н/о н/о +18.6 +8.8 53 +18 +18 1012.0 974.1
06 18.09 СЗ 9 н/о н/о +20.6 +9.2 48 +22 +22 комфорт 1009.6 971.8
07 18.09 СЗ 7 н/о н/о +20.3 +8.3 46 +21 +21 комфорт 1009.1 971.3
09 18.09 СЗ 9 н/о н/о +18.6 +8.6 52 +18 +18 1008.8 971.0
10 18.09 СЗ 6 н/о н/о +17.4 +8.3 55 +17 +17 1008.5 970.7
12 18.09 СЗ 7 н/о н/о +14.2 +11.9 86 +12 +12 1008.5 970.7
13 18.09 З 8 н/о туман местами н/о +13.8 +11.7 87 +11 +11 1008.4 970.6 +21.7
15 18.09 З 8 н/о н/о +12.2 +10.1 87 +9 +9 1008.5 970.7
16 18.09 ЮЗ 8 н/о в посл. час дождь {туман} н/о +9.9 +8.0 88 +6 +6 1009.4 971.6
18 18.09 З 7 н/о н/о +9.0 +5.9 81 +5 +5 1010.3 972.5
19 18.09 З 6 н/о {туман} н/о +7.3 +3.5 77 +3 +3 1010.5 972.7
21 18.09 З 6 н/о н/о +6.5 +2.9 78 +2 +2 1012.1 974.2
22 18.09 З 5 н/о н/о +6.4 +2.9 78 +2 +2 1013.1 975.2
00 19.09 З 8 н/о н/о +7.8 +3.3 73 +3 +3 1015.1 977.1
01 19.09 ЮЗ 10 н/о н/о +9.0 +2.1 62 +4 +4 1015.9 977.9 +6.2
03 19.09 ЮЗ 8 н/о н/о +9.7 +3.7 66 +6 +6 1017.2 979.1
04 19.09 ЮЗ 9 н/о н/о +10.4 +1.5 54 +7 +7 1017.7 979.6
06 19.09 ЮЗ 7 н/о н/о +11.9 +3.4 56 +9 +9 1018.0 979.9
07 19.09 ЮЗ 8 н/о {туман} н/о +10.9 +2.2 55 +8 +8 1018.5 980.4
09 19.09 ЮЗ 7 н/о н/о +9.6 +1.5 57 +6 +6 1020.6 982.4
10 19.09 ЮЗ 5 н/о н/о +7.9 +0.2 58 +4 +4 1021.3 983.1
12 19.09 ЮЗ 2 н/о н/о +4.4 +1.3 80 +2 +2 1023.4 985.1
13 19.09 ЮЗ 3 н/о н/о +3.4 +0.3 80 -1 -1 1023.9 985.6 +14.9
15 19.09 З 2 н/о н/о +2.5 +0.2 85 -1 -1 1024.0 985.7
16 19.09 З 2 н/о н/о +2.0 +0.2 88 -1 -1 1024.2 985.8
18 19.09 З 3 н/о н/о +2.2 +0.6 89 -2 -2 1024.2 985.8
19 19.09 З 3 н/о н/о +2.0 +0.4 89 -2 -2 1024.3 985.9
21 19.09 З 4 н/о н/о +2.1 +0.6 90 -3 -3 1025.1 986.7
22 19.09 З 4 н/о {туман} н/о +2.5 +1.0 90 -3 -3 1025.4 987.0
00 20.09 ЮЗ 5 н/о н/о +6.7 +4.0 83 +3 +3 1026.4 988.0
01 20.09 ЮЗ 4 н/о {туман} н/о +9.6 +4.6 71 +7 +7 1026.6 988.2 +1.5
03 20.09 Ю 5 н/о н/о +13.2 +3.3 51 +12 +12 1026.3 987.9
04 20.09 Ю 3 н/о н/о +12.9 +1.9 47 +12 +12 1025.7 987.3
06 20.09 Ю 4 н/о н/о +13.9 +1.9 44 +13 +13 1024.6 986.2
07 20.09 ЮЗ 4 н/о н/о +13.9 +2.5 46 +13 +13 1024.7 986.3
09 20.09 Ю 4 н/о н/о +12.7 +3.4 53 +11 +11 1026.0 987.6
10 20.09 Ю 3 н/о в посл. час дождь {туман} н/о +9.4 +6.5 82 +7 +7 1026.9 988.4
12 20.09 Ю 2 н/о н/о +6.1 +4.4 89 +4 +4 1027.8 989.3
13 20.09 Ю 3 н/о {туман} н/о +7.3 +5.4 88 +5 +5 1028.1 989.6 +15.7
15 20.09 ЮВ 2 н/о н/о +6.7 +5.0 89 +5 +5 1028.1 989.6
16 20.09 ЮВ 1 н/о н/о +3.0 +1.1 87 +1 +1 1027.8 989.3
18 20.09 З 1 н/о н/о +1.3 0.0 91 -1 -1 1027.5 989.0
19 20.09 З 2 н/о н/о +0.9 -0.4 91 -2 -2 1027.6 989.1
21 20.09 З 1 н/о н/о +0.1 -1.0 92 -2 -2 1028.3 989.8
22 20.09 штиль 0 н/о н/о -0.4 -1.5 92 -2 -2 1028.8 990.3
00 21.09 З 2 н/о н/о +7.0 +5.8 92 +5 +5 1029.5 990.9
03 21.09 ЮЗ 4 н/о н/о +12.8 +4.0 55 +11 +11 1029.0 990.5
04 21.09 ЮЗ 3 н/о н/о +13.5 +2.1 46 +13 +13 1028.6 990.1

 

Местоположение метеостанции Ньюдегейт (Западная Австралия, Австралия): широта -33.12 долгота 118.83 высота над уровнем моря 321 м.

В архиве по умолчанию представлена погода в Ньюдегейте за последнюю неделю. Архивные данные за месяц целиком и за предыдущие месяцы, начиная с января 2011 года, Вы можете получить, выбрав интересующий диапазон дат из раскрывающегося списка и нажав кнопку "Ввод!".


*Определитесь, кто Вы:
робот инопланетянин человек

Внимание! Время в таблицах - всемирное. Для получения местного времени необходимо прибавить поправку, которая равна 8 ч.

Смотрите также архив погоды в соседних городах и на ближайших метеорологических станциях:

Погода на Озере Грейс (Западная Австралия, Австралия) (35 км)
Погода в Джакапе (Западная Австралия, Австралия) (88 км)
Погода в Катаннинге (Западная Австралия, Австралия) (130 км)
Погода в Хоптауне (Западная Австралия, Австралия) (150 км)
Погода в Мунглинап Запад (Западная Австралия, Австралия) (180 км)
Погода в Уондеринге (Западная Австралия, Австралия) (208 км)
Погода в Саутерн Кросс (Западная Австралия, Австралия) (216 км)
Погода в Олбани (Западная Австралия, Австралия) (223 км)
Погода в Кандердине (Западная Австралия, Австралия) (225 км)
Погода в Роки Галли (Западная Австралия, Австралия) (232 км)

Пояснения к столбцам:

Ветер - указаны скорость ветра в м/с - средняя за 10 мин, порывы в срок и между сроками (в фигурных скобках) и направление, откуда дует ветер: С - северный, СВ - северо-восточный, В - восточный, ЮВ - юго-восточный, Ю - южный, ЮЗ - юго-западный, З - западный, СЗ - северо-западный.
Видимость - горизонтальная дальность видимости в метрах или километрах. При видимости от 1 до 10 км при отсутствии осадков обычно наблюдается дымка, при ухудшении видимости до 1 км и менее - туман. В сухую погоду видимость может ухудшаться дымом, пылью или мглою.
Явления - указаны атмосферные явления, наблюдавшиеся в срок или в последний час перед сроком; фигурными скобками обозначены явления, наблюдавшиеся между сроками (за 1-3 часа до срока); квадратными скобками обозначены град или гололедные отложения с указанием их диаметра в мм.
Облачность - указаны через наклонную черту общая и нижняя облачность в баллах и высота нижней границы облаков в метрах; квадратными скобками обозначены формы облаков: Ci - перистые, Cs - перисто-слоистые, Cc - перисто-кучевые, Ac - высококучевые, As - высокослоистые, Sc - слоисто-кучевые, Ns - слоисто-дождевые, Cu - кучевые, Cb - кучево-дождевые. Подробнее классификацию облаков см. в Атласе облаков (PDF).
T - Температура воздуха - температура, измеренная на высоте 2 м над землей.
Td - Температура точки росы - температура, при понижении до которой содержащийся в воздухе водяной пар достигнет насыщения.
f - Относительная влажность воздуха - влажноcть воздуха, измеренная на высоте 2 м над землей.
Te - Эффективная температура - температура, которую ощущает одетый по сезону человек в тени. Характеристика душности погоды. При расчете учитывается влияние влажности воздуха и скорости ветра на теплоощущения человека.
Tes - Эффективная температура на солнце - температура, которую ощущает человек, с поправкой на солнечный нагрев. Характеристика знойности погоды. Зависит от высоты солнца над горизонтом, облачности и скорости ветра. Ночью, в пасмурную погоду, а также при ветре 12 м/с и более поправка равна нулю.
P - Атмосферное давление - приведенное к уровню моря атмосферное давление.
Po - Атмосферное давление - измеренное на уровне метеостанции атмосферное давление.
Tmin - Минимальная температура - минимум температуры воздуха на высоте 2 м над землей.
Tmax - Максимальная температура - максимум температуры воздуха на высоте 2 м над землей.
R - Количество осадков - Количество выпавших осадков за период времени, мм. При наведении курсора мыши на число - период времени, за который выпало указанное количество осадков.
R24 - Количество осадков - Количество выпавших осадков за 24 часа, мм.
S - Снежный покров - Высота снежного покрова, см. При наведении курсора мыши на число - состояние снежного покрова и степень покрытия местности в баллах.